When you browse on this site, cookies collect data to enhance your experience and personalize the content and advertising you see.
Visit our Privacy Policy to learn more. By continuing to use the site, you agree to this use of cookies and data.
  • In Lithuania
  • List of Countries
  • For 7 days
  • Water Temperature
  • Weather Map
  • Weather Widgets
  • user-avatar
    Login

    Hourly Weather Klaipeda

    Today, 21 September, Saturday

    Time Temperature Precipitation Wind Pressure Humidity
    00:00 +10°C° 0.1 mm 6 mps 763 mmHg 88%
    01:00 +10°C° 0.1 mm 6 mps 763 mmHg 91%
    02:00 +11°C° 0 mm 6 mps 762 mmHg 92%
    03:00 +11°C° 0 mm 6 mps 762 mmHg 93%
    04:00 +11°C° 0 mm 6 mps 762 mmHg 94%
    05:00 +13°C° 0 mm 6 mps 762 mmHg 93%
    06:00 +13°C° 0 mm 6 mps 762 mmHg 92%
    07:00 +14°C° 0 mm 7 mps 762 mmHg 92%
    08:00 +14°C° 0 mm 6 mps 762 mmHg 88%
    09:00 +15°C° 0 mm 6 mps 762 mmHg 85%
    10:00 +15°C° 0 mm 6 mps 762 mmHg 82%
    11:00 +16°C° 0 mm 6 mps 762 mmHg 81%
    12:00 +16°C° 0 mm 6 mps 762 mmHg 80%
    13:00 +16°C° 0 mm 7 mps 762 mmHg 78%
    14:00 +15°C° 0 mm 7 mps 762 mmHg 81%
    15:00 +15°C° 0 mm 7 mps 762 mmHg 84%
    16:00 +14°C° 0 mm 6 mps 762 mmHg 87%
    17:00 +13°C° 0 mm 6 mps 762 mmHg 88%
    18:00 +13°C° 0 mm 6 mps 762 mmHg 89%
    19:00 +13°C° 0 mm 5 mps 762 mmHg 91%
    20:00 +12°C° 0 mm 5 mps 762 mmHg 92%
    21:00 +12°C° 0 mm 5 mps 762 mmHg 93%
    22:00 +12°C° 0 mm 5 mps 762 mmHg 94%
    23:00 +12°C° 0 mm 5 mps 762 mmHg 95%

    Tomorrow, 22 September, Sunday

    Time Temperature Precipitation Wind Pressure Humidity
    00:00 +12°C° 0 mm 5 mps 762 mmHg 96%
    01:00 +12°C° 0 mm 5 mps 762 mmHg 96%
    02:00 +12°C° 0 mm 5 mps 761 mmHg 97%
    03:00 +12°C° 0 mm 5 mps 761 mmHg 97%
    04:00 +12°C° 0 mm 5 mps 761 mmHg 97%
    05:00 +13°C° 0 mm 5 mps 761 mmHg 96%
    06:00 +13°C° 0 mm 5 mps 761 mmHg 94%
    07:00 +14°C° 0 mm 4 mps 761 mmHg 93%
    08:00 +15°C° 0 mm 4 mps 761 mmHg 84%
    09:00 +17°C° 0 mm 4 mps 761 mmHg 75%
    10:00 +19°C° 0 mm 3 mps 761 mmHg 66%
    11:00 +19°C° 0 mm 3 mps 761 mmHg 63%
    12:00 +19°C° 0 mm 4 mps 761 mmHg 59%
    13:00 +20°C° 0 mm 4 mps 762 mmHg 56%
    14:00 +19°C° 0 mm 4 mps 762 mmHg 59%
    15:00 +18°C° 0 mm 4 mps 762 mmHg 61%
    16:00 +16°C° 0 mm 5 mps 762 mmHg 63%
    17:00 +14°C° 0 mm 6 mps 762 mmHg 64%
    18:00 +11°C° 0 mm 6 mps 763 mmHg 66%
    19:00 +9°C° 0 mm 7 mps 763 mmHg 67%
    20:00 +8°C° 0 mm 7 mps 763 mmHg 65%
    21:00 +7°C° 0 mm 6 mps 764 mmHg 64%
    22:00 +5°C° 0 mm 6 mps 764 mmHg 62%
    23:00 +5°C° 0 mm 6 mps 765 mmHg 65%

    Day after tomorrow, 23 September, Monday

    Time Temperature Precipitation Wind Pressure Humidity
    00:00 +4°C° 0 mm 6 mps 765 mmHg 67%
    01:00 +5°C° 0 mm 5 mps 765 mmHg 69%
    02:00 +5°C° 0 mm 5 mps 765 mmHg 70%
    03:00 +3°C° 0 mm 6 mps 765 mmHg 71%
    04:00 +3°C° 0 mm 6 mps 765 mmHg 72%
    05:00 +4°C° 0 mm 6 mps 765 mmHg 71%
    06:00 +4°C° 0 mm 6 mps 765 mmHg 69%
    07:00 +4°C° 0 mm 6 mps 765 mmHg 68%
    08:00 +7°C° 0 mm 6 mps 765 mmHg 62%
    09:00 +8°C° 0 mm 6 mps 765 mmHg 57%
    10:00 +10°C° 0 mm 6 mps 765 mmHg 51%
    11:00 +10°C° 0 mm 6 mps 765 mmHg 49%
    12:00 +12°C° 0 mm 5 mps 765 mmHg 47%
    13:00 +12°C° 0 mm 5 mps 764 mmHg 45%
    14:00 +12°C° 0 mm 5 mps 764 mmHg 48%
    15:00 +10°C° 0 mm 5 mps 764 mmHg 51%
    16:00 +10°C° 0 mm 5 mps 763 mmHg 54%
    17:00 +8°C° 0 mm 5 mps 763 mmHg 57%
    18:00 +7°C° 0 mm 6 mps 763 mmHg 60%
    19:00 +5°C° 0 mm 6 mps 763 mmHg 63%
    20:00 +4°C° 0 mm 6 mps 763 mmHg 63%
    21:00 +4°C° 0 mm 6 mps 763 mmHg 63%
    22:00 +4°C° 0 mm 6 mps 763 mmHg 63%
    23:00 +4°C° 0 mm 6 mps 763 mmHg 64%

    24 September, Tuesday

    Time Temperature Precipitation Wind Pressure Humidity
    00:00 +3°C° 0 mm 6 mps 763 mmHg 65%
    01:00 +3°C° 0 mm 6 mps 763 mmHg 65%
    02:00 +3°C° 0 mm 6 mps 763 mmHg 67%
    03:00 +2°C° 0 mm 6 mps 763 mmHg 68%
    04:00 +2°C° 0 mm 6 mps 762 mmHg 70%
    05:00 +2°C° 0 mm 6 mps 762 mmHg 68%
    06:00 +3°C° 0 mm 6 mps 762 mmHg 66%
    07:00 +4°C° 0 mm 6 mps 762 mmHg 64%
    08:00 +5°C° 0 mm 6 mps 762 mmHg 59%
    09:00 +8°C° 0 mm 5 mps 762 mmHg 54%
    10:00 +10°C° 0 mm 5 mps 763 mmHg 49%
    11:00 +12°C° 0 mm 5 mps 762 mmHg 47%
    12:00 +13°C° 0 mm 4 mps 762 mmHg 46%
    13:00 +13°C° 0 mm 4 mps 762 mmHg 44%
    14:00 +13°C° 0 mm 4 mps 762 mmHg 48%
    15:00 +12°C° 0 mm 4 mps 761 mmHg 52%
    16:00 +12°C° 0 mm 4 mps 761 mmHg 55%
    17:00 +10°C° 0 mm 4 mps 761 mmHg 61%
    18:00 +7°C° 0 mm 5 mps 761 mmHg 67%
    19:00 +5°C° 0 mm 5 mps 761 mmHg 73%
    20:00 +5°C° 0 mm 5 mps 761 mmHg 72%
    21:00 +4°C° 0 mm 6 mps 761 mmHg 72%
    22:00 +3°C° 0 mm 6 mps 761 mmHg 72%
    23:00 +3°C° 0 mm 6 mps 761 mmHg 73%

    25 September, Wednesday

    Time Temperature Precipitation Wind Pressure Humidity
    00:00 +3°C° 0 mm 6 mps 760 mmHg 75%
    01:00 +2°C° 0 mm 5 mps 760 mmHg 76%
    02:00 +2°C° 0 mm 5 mps 760 mmHg 77%
    03:00 +2°C° 0 mm 6 mps 760 mmHg 78%
    04:00 +2°C° 0 mm 6 mps 760 mmHg 79%
    05:00 +3°C° 0 mm 6 mps 759 mmHg 77%
    06:00 +3°C° 0 mm 6 mps 759 mmHg 75%
    07:00 +4°C° 0 mm 6 mps 759 mmHg 73%
    08:00 +7°C° 0 mm 6 mps 759 mmHg 68%
    09:00 +8°C° 0 mm 6 mps 759 mmHg 64%
    10:00 +10°C° 0 mm 6 mps 759 mmHg 59%
    11:00 +11°C° 0 mm 6 mps 759 mmHg 59%
    12:00 +13°C° 0 mm 5 mps 759 mmHg 58%
    13:00 +14°C° 0 mm 5 mps 759 mmHg 57%
    14:00 +13°C° 0 mm 5 mps 759 mmHg 60%
    15:00 +13°C° 0 mm 5 mps 759 mmHg 63%
    16:00 +12°C° 0 mm 5 mps 758 mmHg 66%
    17:00 +10°C° 0 mm 5 mps 758 mmHg 70%
    18:00 +9°C° 0 mm 6 mps 758 mmHg 73%
    19:00 +8°C° 0 mm 7 mps 758 mmHg 76%
    20:00 +8°C° 0 mm 7 mps 759 mmHg 77%
    21:00 +8°C° 0 mm 7 mps 759 mmHg 77%
    22:00 +6°C° 0 mm 7 mps 759 mmHg 78%
    23:00 +6°C° 0 mm 7 mps 759 mmHg 79%

    26 September, Thursday

    Time Temperature Precipitation Wind Pressure Humidity
    00:00 +5°C° 0 mm 7 mps 759 mmHg 79%
    01:00 +5°C° 0 mm 7 mps 759 mmHg 80%
    02:00 +4°C° 0 mm 7 mps 759 mmHg 79%
    03:00 +4°C° 0 mm 8 mps 759 mmHg 79%
    04:00 +4°C° 0 mm 8 mps 759 mmHg 79%
    05:00 +4°C° 0 mm 8 mps 759 mmHg 78%
    06:00 +4°C° 0 mm 8 mps 759 mmHg 77%
    07:00 +3°C° 0 mm 9 mps 759 mmHg 75%
    08:00 +5°C° 0 mm 9 mps 759 mmHg 72%
    09:00 +7°C° 0 mm 8 mps 759 mmHg 68%
    10:00 +9°C° 0 mm 8 mps 760 mmHg 64%
    11:00 +9°C° 0 mm 8 mps 759 mmHg 64%
    12:00 +9°C° 0 mm 8 mps 759 mmHg 65%
    13:00 +7°C° 0 mm 8 mps 759 mmHg 66%
    14:00 +7°C° 0 mm 8 mps 759 mmHg 66%
    15:00 +8°C° 0 mm 7 mps 759 mmHg 66%
    16:00 +8°C° 0 mm 7 mps 759 mmHg 65%
    17:00 +8°C° 0 mm 7 mps 759 mmHg 66%
    18:00 +8°C° 0 mm 7 mps 759 mmHg 68%
    19:00 +8°C° 0 mm 7 mps 759 mmHg 69%
    20:00 +6°C° 0 mm 8 mps 759 mmHg 72%
    21:00 +6°C° 0 mm 8 mps 760 mmHg 75%
    22:00 +5°C° 0 mm 8 mps 760 mmHg 78%
    23:00 +5°C° 0 mm 7 mps 759 mmHg 79%
    Show more